Flag for Malaysia Weather past 2 weeks in Kuching, Malaysia

86 °F

Broken clouds.

Feels Like: 97 °F
Forecast: 77 / 89 °F
Wind: 2 mph from Southeast

Location: Kuching Airport

Current Time: Oct 7, 2015 at 11:05:17 AM

Latest Report: Oct 7, 2015 at 10:30 AM

Visibility: 5 mi

Pressure: 29.92 "Hg

Humidity: 75%

Dew point: 77 °F

Location of KuchingLocation

Historic Weather in Kuching — Graph


Kuching temperature yesterday

Maximum temperature yesterday: 88 °F (at 3:00 PM)
Minimum temperature yesterday: 75 °F (at 6:30 AM)
Average temperature yesterday: 78 °F

Past Weeks' High & Low Weather Summary

High93 °F (Sep 22, 1:30 PM)100% (Sep 25, 8:00 AM)29.98 "Hg (Sep 25, 8:00 AM)
Low73 °F (Sep 30, 1:30 AM)52% (Sep 30, 1:00 PM)29.71 "Hg (Sep 22, 4:00 PM)
Average81 °F85%29.85 "Hg
* Reported Sep 22 10:00 AM — Oct 7 10:00 AM, Kuching, Weather by CustomWeather, © 2015

Note: Actual official high and low records may vary slightly from our data, if they occured in-between our weather recording intervals... More about our weather records


Kuching weather history for previous 24 hours

Time TempWeatherWind HumidityBarometerVisibility
10:00 AM
Wed, Oct 7
86 °FPartly sunny.3 mph75%29.92 "Hg4 mi
9:30 AM82 °FPartly sunny.3 mph84%29.95 "Hg4 mi
9:00 AM81 °FPartly sunny.2 mph89%29.95 "Hg4 mi
8:30 AM79 °FPartly sunny.3 mph94%29.92 "Hg4 mi
8:00 AM77 °FPartly sunny.2 mph94%29.92 "Hg4 mi
7:30 AM75 °FFog.No wind100%29.92 "Hg2 mi
7:00 AM75 °FFog.1 mph94%29.89 "Hg2 mi
6:30 AM75 °FPartly sunny.3 mph94%29.89 "Hg5 mi
6:00 AM75 °FPassing clouds.1 mph100%29.89 "Hg5 mi
5:30 AM75 °FPassing clouds.1 mph100%29.86 "Hg5 mi
5:00 AM75 °FPassing clouds.2 mph100%29.86 "Hg5 mi
4:30 AM75 °FPartly cloudy.No wind100%29.86 "Hg5 mi
4:00 AM75 °FPassing clouds.2 mph100%29.86 "Hg5 mi
3:30 AM75 °FPartly cloudy.1 mph100%29.86 "Hg5 mi
3:00 AM75 °FPartly cloudy.2 mph100%29.86 "HgN/A
2:30 AM75 °FPartly cloudy.No wind100%29.86 "HgN/A
2:00 AM75 °FPartly cloudy.2 mph100%29.86 "HgN/A
1:30 AM77 °FPartly cloudy.No wind94%29.89 "HgN/A
1:00 AM75 °FPartly cloudy.1 mph100%29.89 "HgN/A
12:30 AM75 °FPartly cloudy.1 mph100%29.89 "HgN/A
12:00 AM77 °FPartly cloudy.1 mph94%29.89 "HgN/A
11:30 PM
Tue, Oct 6
77 °FPartly cloudy.No wind94%29.92 "HgN/A
11:00 PM75 °FPartly cloudy.1 mph100%29.92 "HgN/A
10:30 PM75 °FPartly cloudy.2 mph100%29.92 "HgN/A
10:00 PM75 °FPassing clouds.3 mph100%29.89 "HgN/A
9:30 PM75 °FPartly cloudy.3 mph100%29.92 "HgN/A
9:00 PM75 °FPartly cloudy.3 mph100%29.92 "HgN/A
8:30 PM77 °FPartly cloudy.2 mph94%29.89 "HgN/A
8:00 PM77 °FPartly cloudy.2 mph94%29.89 "HgN/A
7:30 PM77 °FPartly cloudy.1 mph94%29.89 "HgN/A
7:00 PM77 °FPartly cloudy.5 mph94%29.86 "HgN/A
6:30 PM77 °FPartly cloudy.3 mph94%29.83 "HgN/A
6:00 PM77 °FBroken clouds.5 mph94%29.83 "HgN/A
5:30 PM79 °FLight rain. Broken clouds.7 mph89%29.83 "Hg5 mi
5:00 PM77 °FLight rain. Broken clouds.5 mph94%29.83 "Hg4 mi
4:30 PM75 °FRain showers. Broken clouds.15 mph100%29.83 "Hg1 mi
4:00 PM84 °FSprinkles. Broken clouds.6 mph79%29.80 "Hg3 mi
3:30 PM88 °FBroken clouds.6 mph66%29.80 "Hg4 mi
3:00 PM88 °FBroken clouds.5 mph66%29.83 "Hg4 mi
2:30 PM86 °FBroken clouds.6 mph70%29.83 "Hg4 mi
2:00 PM86 °FBroken clouds.5 mph75%29.83 "Hg4 mi
1:30 PM86 °FBroken clouds.3 mph75%29.86 "Hg4 mi
1:00 PM84 °FBroken clouds.6 mph79%29.89 "Hg4 mi
12:30 PM82 °FBroken clouds.3 mph79%29.89 "Hg4 mi
12:00 PM81 °FBroken clouds.3 mph84%29.92 "Hg4 mi
11:30 AM79 °FLight rain. Broken clouds.5 mph89%29.95 "Hg4 mi
11:00 AM77 °FRain. Broken clouds.5 mph94%29.95 "Hg2 mi
Weather by CustomWeather, © 2015

See weather overviewHow to use our weather pages